TimeEST,TemperatureF,Dew PointF,Humidity,Sea Level PressureIn,VisibilityMPH,Wind Direction,Wind SpeedMPH,Gust SpeedMPH,PrecipitationIn,Events,Conditions,WindDirDegrees,DateUTC
12:56 AM,23.0,6.1,48,30.35,10.0,West,10.4,-,N/A,,Clear,280,2013-11-25 05:56:00
1:56 AM,23.0,7.0,50,30.36,10.0,WNW,8.1,-,N/A,,Clear,290,2013-11-25 06:56:00
2:56 AM,23.0,8.1,53,30.35,10.0,WNW,10.4,-,N/A,,Clear,290,2013-11-25 07:56:00
3:56 AM,23.0,8.1,53,30.37,10.0,WNW,10.4,-,N/A,,Clear,290,2013-11-25 08:56:00
4:56 AM,21.9,8.1,55,30.39,10.0,WNW,10.4,-,N/A,,Clear,290,2013-11-25 09:56:00
5:56 AM,21.0,9.0,60,30.40,10.0,WNW,6.9,-,N/A,,Partly Cloudy,290,2013-11-25 10:56:00
6:56 AM,21.9,10.0,60,30.42,10.0,WNW,8.1,-,N/A,,Partly Cloudy,290,2013-11-25 11:56:00
7:56 AM,25.0,10.9,55,30.44,10.0,West,6.9,-,N/A,,Scattered Clouds,280,2013-11-25 12:56:00
8:56 AM,28.0,12.0,51,30.46,10.0,WNW,10.4,-,N/A,,Scattered Clouds,300,2013-11-25 13:56:00
9:56 AM,28.9,10.0,45,30.46,10.0,West,8.1,-,N/A,,Scattered Clouds,280,2013-11-25 14:56:00
10:56 AM,30.9,8.1,38,30.45,10.0,Variable,4.6,-,N/A,,Partly Cloudy,0,2013-11-25 15:56:00
11:56 AM,33.1,8.1,35,30.43,10.0,WSW,8.1,-,N/A,,Partly Cloudy,250,2013-11-25 16:56:00
12:56 PM,34.0,10.0,37,30.40,10.0,West,8.1,-,N/A,,Partly Cloudy,270,2013-11-25 17:56:00
1:56 PM,36.0,9.0,33,30.38,10.0,WSW,8.1,-,N/A,,Partly Cloudy,240,2013-11-25 18:56:00
2:56 PM,34.0,9.0,35,30.38,10.0,SW,9.2,-,N/A,,Scattered Clouds,220,2013-11-25 19:56:00
3:56 PM,33.1,12.9,43,30.39,10.0,SSW,10.4,-,N/A,,Scattered Clouds,210,2013-11-25 20:56:00
4:56 PM,30.9,14.0,50,30.39,10.0,WSW,5.8,-,N/A,,Partly Cloudy,240,2013-11-25 21:56:00
5:56 PM,30.9,15.1,52,30.38,10.0,Calm,Calm,-,N/A,,Mostly Cloudy,0,2013-11-25 22:56:00
6:56 PM,32.0,16.0,52,30.37,10.0,SW,4.6,-,N/A,,Mostly Cloudy,230,2013-11-25 23:56:00
7:56 PM,33.1,16.0,50,30.36,10.0,SW,9.2,-,N/A,,Mostly Cloudy,230,2013-11-26 00:56:00
8:56 PM,34.0,17.1,50,30.35,10.0,WSW,10.4,-,N/A,,Mostly Cloudy,240,2013-11-26 01:56:00
9:56 PM,34.0,16.0,48,30.35,10.0,WSW,12.7,-,N/A,,Mostly Cloudy,240,2013-11-26 02:56:00
10:56 PM,35.1,18.0,50,30.34,10.0,WSW,13.8,21.9,N/A,,Overcast,240,2013-11-26 03:56:00
11:56 PM,35.1,17.1,48,30.34,10.0,WSW,12.7,-,N/A,,Overcast,240,2013-11-26 04:56:00